Time,TemperatureF,DewpointF,PressureIn,WindDirection,WindDirectionDegrees,WindSpeedMPH,WindSpeedGustMPH,Humidity,HourlyPrecipIn,Conditions,Clouds,dailyrainin,SoftwareType,DateUTC
2013-07-21 00:02:00,56.1,38.7,29.78,West,274,1.0,10.0,52,0.00,CLR,,0.00,WeatherDisplay:10.37,2013-07-20 14:02:00,
2013-07-21 00:07:00,56.1,38.7,29.78,West,262,0.0,6.0,52,0.00,CLR,,0.00,WeatherDisplay:10.37,2013-07-20 14:07:00,
2013-07-21 00:12:00,56.1,38.7,29.78,West,275,0.0,0.0,52,0.00,CLR,,0.00,WeatherDisplay:10.37,2013-07-20 14:12:00,
2013-07-21 00:17:00,55.9,38.6,29.78,WNW,288,0.0,4.0,52,0.00,CLR,,0.00,WeatherDisplay:10.37,2013-07-20 14:17:00,
2013-07-21 00:22:00,55.9,38.6,29.78,West,278,0.0,3.0,52,0.00,CLR,,0.00,WeatherDisplay:10.37,2013-07-20 14:22:00,
2013-07-21 00:27:00,55.8,38.4,29.78,West,265,1.0,3.0,52,0.00,CLR,,0.00,WeatherDisplay:10.37,2013-07-20 14:27:00,
2013-07-21 00:32:00,55.7,38.4,29.78,West,260,0.0,3.0,52,0.00,CLR,,0.00,WeatherDisplay:10.37,2013-07-20 14:32:00,
2013-07-21 00:37:00,55.6,38.2,29.78,West,276,0.0,4.0,52,0.00,CLR,,0.00,WeatherDisplay:10.37,2013-07-20 14:37:00,
2013-07-21 00:42:00,55.6,38.2,29.78,WNW,285,0.0,2.0,52,0.00,CLR,,0.00,WeatherDisplay:10.37,2013-07-20 14:42:00,
2013-07-21 00:47:00,55.4,38.1,29.79,West,280,0.0,0.0,52,0.00,CLR,,0.00,WeatherDisplay:10.37,2013-07-20 14:47:00,
2013-07-21 00:52:00,55.2,37.9,29.78,West,268,1.0,8.0,52,0.00,CLR,,0.00,WeatherDisplay:10.37,2013-07-20 14:52:00,
2013-07-21 00:57:00,55.2,37.9,29.78,West,263,0.0,3.0,52,0.00,CLR,,0.00,WeatherDisplay:10.37,2013-07-20 14:57:00,
2013-07-21 01:02:00,55.2,37.9,29.79,West,277,0.0,1.0,52,0.00,CLR,,0.00,WeatherDisplay:10.37,2013-07-20 15:02:00,
2013-07-21 01:07:00,55.0,38.2,29.79,West,274,0.0,2.0,53,0.00,CLR,,0.00,WeatherDisplay:10.37,2013-07-20 15:07:00,
2013-07-21 01:12:00,55.0,38.1,29.79,WNW,289,0.0,3.0,53,0.00,CLR,,0.00,WeatherDisplay:10.37,2013-07-20 15:12:00,
2013-07-21 01:17:00,54.9,38.0,29.79,WNW,288,0.0,0.0,53,0.00,CLR,,0.00,WeatherDisplay:10.37,2013-07-20 15:17:00,
2013-07-21 01:22:00,54.9,38.0,29.79,West,277,0.0,3.0,53,0.00,CLR,,0.00,WeatherDisplay:10.37,2013-07-20 15:22:00,
2013-07-21 01:27:00,54.7,37.9,29.79,West,270,0.0,3.0,53,0.00,CLR,,0.00,WeatherDisplay:10.37,2013-07-20 15:27:00,
2013-07-21 01:32:00,54.7,37.9,29.79,West,267,0.0,6.0,53,0.00,CLR,,0.00,WeatherDisplay:10.37,2013-07-20 15:32:00,
2013-07-21 01:37:00,54.5,37.7,29.79,West,261,1.0,7.0,53,0.00,CLR,,0.00,WeatherDisplay:10.37,2013-07-20 15:37:00,
2013-07-21 01:42:00,54.4,38.1,29.80,West,277,0.0,2.0,54,0.00,CLR,,0.00,WeatherDisplay:10.37,2013-07-20 15:42:00,
2013-07-21 01:47:00,54.3,38.0,29.80,West,278,0.0,3.0,54,0.00,CLR,,0.00,WeatherDisplay:10.37,2013-07-20 15:47:00,
2013-07-21 01:52:00,54.3,38.0,29.80,West,273,0.0,0.0,54,0.00,CLR,,0.00,WeatherDisplay:10.37,2013-07-20 15:52:00,
2013-07-21 01:57:00,54.1,37.8,29.81,WSW,245,0.0,0.0,54,0.00,CLR,,0.00,WeatherDisplay:10.37,2013-07-20 15:57:00,
2013-07-21 02:02:00,54.1,37.8,29.81,WSW,250,0.0,0.0,54,0.00,CLR,,0.00,WeatherDisplay:10.37,2013-07-20 16:02:00,
2013-07-21 02:07:00,54.1,37.8,29.81,WNW,284,0.0,0.0,54,0.00,CLR,,0.00,WeatherDisplay:10.37,2013-07-20 16:07:00,
2013-07-21 02:12:00,54.0,38.2,29.81,West,272,0.0,1.0,55,0.00,CLR,,0.00,WeatherDisplay:10.37,2013-07-20 16:12:00,
2013-07-21 02:17:00,53.8,38.0,29.81,SW,226,0.0,1.0,55,0.00,CLR,,0.00,WeatherDisplay:10.37,2013-07-20 16:17:00,
2013-07-21 02:22:00,53.5,38.2,29.81,SSW,204,0.0,0.0,56,0.00,CLR,,0.00,WeatherDisplay:10.37,2013-07-20 16:22:00,
2013-07-21 02:27:00,53.3,38.5,29.81,SSW,204,0.0,0.0,57,0.00,CLR,,0.00,WeatherDisplay:10.37,2013-07-20 16:27:00,
2013-07-21 02:32:00,53.1,38.2,29.81,SSW,201,0.0,0.0,57,0.00,CLR,,0.00,WeatherDisplay:10.37,2013-07-20 16:32:00,
2013-07-21 02:37:00,52.7,37.9,29.82,SSW,195,0.0,0.0,57,0.00,CLR,,0.00,WeatherDisplay:10.37,2013-07-20 16:37:00,
2013-07-21 02:42:00,52.3,37.5,29.82,SSW,203,0.0,0.0,57,0.00,CLR,,0.00,WeatherDisplay:10.37,2013-07-20 16:42:00,
2013-07-21 02:47:00,52.2,37.8,29.82,SSW,206,0.0,0.0,58,0.00,CLR,,0.00,WeatherDisplay:10.37,2013-07-20 16:47:00,
2013-07-21 02:52:00,52.0,37.7,29.82,SSW,199,0.0,0.0,58,0.00,CLR,,0.00,WeatherDisplay:10.37,2013-07-20 16:52:00,
2013-07-21 02:57:00,51.8,37.9,29.82,SSW,193,0.0,0.0,59,0.00,CLR,,0.00,WeatherDisplay:10.37,2013-07-20 16:57:00,
2013-07-21 03:02:00,51.6,37.7,29.82,SSW,204,0.0,0.0,59,0.00,CLR,,0.00,WeatherDisplay:10.37,2013-07-20 17:02:00,
2013-07-21 03:07:00,51.4,38.0,29.82,SSW,213,0.0,0.0,60,0.00,CLR,,0.00,WeatherDisplay:10.37,2013-07-20 17:07:00,
2013-07-21 03:12:00,51.1,38.1,29.82,SW,216,0.0,0.0,61,0.00,CLR,,0.00,WeatherDisplay:10.37,2013-07-20 17:12:00,
2013-07-21 03:17:00,50.9,37.9,29.82,SSW,213,0.0,0.0,61,0.00,CLR,,0.00,WeatherDisplay:10.37,2013-07-20 17:17:00,
2013-07-21 03:22:00,50.7,37.8,29.82,SSW,212,0.0,0.0,61,0.00,CLR,,0.00,WeatherDisplay:10.37,2013-07-20 17:22:00,
2013-07-21 03:27:00,50.8,38.3,29.82,SW,215,0.0,0.0,62,0.00,CLR,,0.00,WeatherDisplay:10.37,2013-07-20 17:27:00,
2013-07-21 03:32:00,50.7,38.2,29.82,SW,217,0.0,0.0,62,0.00,CLR,,0.00,WeatherDisplay:10.37,2013-07-20 17:32:00,
2013-07-21 03:37:00,50.5,38.4,29.82,SW,216,0.0,0.0,63,0.00,CLR,,0.00,WeatherDisplay:10.37,2013-07-20 17:37:00,
2013-07-21 03:42:00,50.4,38.2,29.82,SW,217,0.0,0.0,63,0.00,CLR,,0.00,WeatherDisplay:10.37,2013-07-20 17:42:00,
2013-07-21 03:47:00,50.2,38.1,29.83,SW,216,0.0,0.0,63,0.00,CLR,,0.00,WeatherDisplay:10.37,2013-07-20 17:47:00,
2013-07-21 03:52:00,50.2,38.5,29.82,SSW,212,0.0,0.0,64,0.00,CLR,,0.00,WeatherDisplay:10.37,2013-07-20 17:52:00,
2013-07-21 03:57:00,50.2,38.5,29.82,SSW,211,0.0,0.0,64,0.00,CLR,,0.00,WeatherDisplay:10.37,2013-07-20 17:57:00,
2013-07-21 04:02:00,49.8,38.5,29.83,SSW,207,0.0,0.0,65,0.00,CLR,,0.00,WeatherDisplay:10.37,2013-07-20 18:02:00,
2013-07-21 04:07:00,49.8,38.5,29.83,SSW,202,0.0,0.0,65,0.00,CLR,,0.00,WeatherDisplay:10.37,2013-07-20 18:07:00,
2013-07-21 04:12:00,49.8,38.5,29.83,SSW,212,0.0,0.0,65,0.00,CLR,,0.00,WeatherDisplay:10.37,2013-07-20 18:12:00,
2013-07-21 04:17:00,49.8,38.5,29.83,SW,214,0.0,0.0,65,0.00,CLR,,0.00,WeatherDisplay:10.37,2013-07-20 18:17:00,
2013-07-21 04:22:00,49.6,38.3,29.83,SSW,208,0.0,0.0,65,0.00,CLR,,0.00,WeatherDisplay:10.37,2013-07-20 18:22:00,
2013-07-21 04:32:00,49.5,38.2,29.83,SSW,211,0.0,0.0,65,0.00,CLR,,0.00,WeatherDisplay:10.37,2013-07-20 18:32:00,
2013-07-21 04:37:00,49.3,38.4,29.84,SSW,208,0.0,0.0,66,0.00,CLR,,0.00,WeatherDisplay:10.37,2013-07-20 18:37:00,
2013-07-21 04:42:00,49.3,38.4,29.84,SSW,213,0.0,0.0,66,0.00,CLR,,0.00,WeatherDisplay:10.37,2013-07-20 18:42:00,
2013-07-21 04:57:00,48.9,38.1,29.85,SW,216,0.0,0.0,66,0.00,CLR,,0.00,WeatherDisplay:10.37,2013-07-20 18:57:00,
2013-07-21 05:02:00,48.7,37.9,29.85,SSW,196,0.0,0.0,66,0.00,CLR,,0.00,WeatherDisplay:10.37,2013-07-20 19:02:00,
2013-07-21 05:07:00,48.7,37.9,29.85,SSW,195,0.0,0.0,66,0.00,CLR,,0.00,WeatherDisplay:10.37,2013-07-20 19:07:00,
2013-07-21 05:17:00,48.4,37.9,29.85,WSW,248,0.0,0.0,67,0.00,CLR,,0.00,WeatherDisplay:10.37,2013-07-20 19:17:00,
2013-07-21 05:27:00,48.4,37.9,29.86,West,262,0.0,0.0,67,0.00,CLR,,0.00,WeatherDisplay:10.37,2013-07-20 19:27:00,
2013-07-21 05:32:00,48.4,37.9,29.86,West,268,0.0,0.0,67,0.00,CLR,,0.00,WeatherDisplay:10.37,2013-07-20 19:32:00,
2013-07-21 05:37:00,48.4,37.9,29.86,West,259,0.0,0.0,67,0.00,CLR,,0.00,WeatherDisplay:10.37,2013-07-20 19:37:00,
2013-07-21 05:42:00,48.4,37.9,29.87,WSW,253,0.0,0.0,67,0.00,CLR,,0.00,WeatherDisplay:10.37,2013-07-20 19:42:00,
2013-07-21 05:52:00,48.3,37.9,29.88,West,270,0.0,0.0,67,0.00,CLR,,0.00,WeatherDisplay:10.37,2013-07-20 19:52:00,
2013-07-21 05:57:00,48.2,37.7,29.87,West,274,0.0,0.0,67,0.00,CLR,,0.00,WeatherDisplay:10.37,2013-07-20 19:57:00,
2013-07-21 06:02:00,48.0,37.6,29.88,West,273,0.0,0.0,67,0.00,CLR,,0.00,WeatherDisplay:10.37,2013-07-20 20:02:00,
2013-07-21 06:12:00,48.0,37.6,29.88,West,267,0.0,0.0,67,0.00,CLR,,0.00,WeatherDisplay:10.37,2013-07-20 20:12:00,
2013-07-21 06:22:00,48.0,37.6,29.88,West,272,0.0,0.0,67,0.00,CLR,,0.00,WeatherDisplay:10.37,2013-07-20 20:22:00,
2013-07-21 06:27:00,48.0,37.6,29.88,West,270,0.0,0.0,67,0.00,CLR,,0.00,WeatherDisplay:10.37,2013-07-20 20:27:00,
2013-07-21 06:32:00,48.0,37.6,29.89,West,270,0.0,0.0,67,0.00,CLR,,0.00,WeatherDisplay:10.37,2013-07-20 20:32:00,
2013-07-21 06:37:00,48.0,37.6,29.89,West,277,0.0,0.0,67,0.00,CLR,,0.00,WeatherDisplay:10.37,2013-07-20 20:37:00,
2013-07-21 06:42:00,47.9,37.5,29.90,WNW,288,0.0,0.0,67,0.00,CLR,,0.00,WeatherDisplay:10.37,2013-07-20 20:42:00,
2013-07-21 06:47:00,47.8,37.4,29.90,WNW,286,0.0,0.0,67,0.00,CLR,,0.00,WeatherDisplay:10.37,2013-07-20 20:47:00,
2013-07-21 06:52:00,47.8,37.8,29.90,West,279,0.0,0.0,68,0.00,CLR,,0.00,WeatherDisplay:10.37,2013-07-20 20:52:00,
2013-07-21 06:57:00,47.7,37.6,29.90,WNW,285,0.0,0.0,68,0.00,CLR,,0.00,WeatherDisplay:10.37,2013-07-20 20:57:00,
2013-07-21 07:02:00,47.6,37.6,29.90,WNW,292,0.0,0.0,68,0.00,CLR,,0.00,WeatherDisplay:10.37,2013-07-20 21:02:00,
2013-07-21 07:07:00,47.5,37.4,29.91,WNW,301,0.0,2.0,68,0.00,CLR,,0.00,WeatherDisplay:10.37,2013-07-20 21:07:00,
2013-07-21 07:12:00,47.5,37.4,29.91,NW,321,0.0,0.0,68,0.00,CLR,,0.00,WeatherDisplay:10.37,2013-07-20 21:12:00,
2013-07-21 07:17:00,47.5,37.4,29.92,NNW,329,0.0,0.0,68,0.00,CLR,,0.00,WeatherDisplay:10.37,2013-07-20 21:17:00,
2013-07-21 07:32:00,47.8,37.8,29.92,NNW,337,0.0,2.0,68,0.00,CLR,,0.00,WeatherDisplay:10.37,2013-07-20 21:32:00,
2013-07-21 07:37:00,48.0,38.0,29.92,NNW,345,0.0,2.0,68,0.00,CLR,,0.00,WeatherDisplay:10.37,2013-07-20 21:37:00,
2013-07-21 07:42:00,48.0,38.0,29.92,North,352,0.0,2.0,68,0.00,CLR,,0.00,WeatherDisplay:10.37,2013-07-20 21:42:00,
2013-07-21 07:47:00,48.1,38.1,29.92,NNW,347,0.0,0.0,68,0.00,CLR,,0.00,WeatherDisplay:10.37,2013-07-20 21:47:00,
2013-07-21 07:52:00,48.4,38.3,29.93,NNW,340,0.0,1.0,68,0.00,CLR,,0.00,WeatherDisplay:10.37,2013-07-20 21:52:00,
2013-07-21 07:57:00,48.6,38.1,29.92,NNW,329,1.0,3.0,67,0.00,CLR,,0.00,WeatherDisplay:10.37,2013-07-20 21:57:00,
2013-07-21 08:02:00,48.7,38.3,29.92,NNW,332,0.0,3.0,67,0.00,CLR,,0.00,WeatherDisplay:10.37,2013-07-20 22:02:00,
2013-07-21 08:12:00,49.2,38.7,29.93,NNW,335,0.0,3.0,67,0.00,CLR,,0.00,WeatherDisplay:10.37,2013-07-20 22:12:00,
2013-07-21 08:22:00,49.8,38.9,29.93,NNW,328,0.0,1.0,66,0.00,CLR,,0.00,WeatherDisplay:10.37,2013-07-20 22:22:00,
2013-07-21 08:32:00,50.5,39.2,29.93,NW,323,0.0,5.0,65,0.00,CLR,,0.00,WeatherDisplay:10.37,2013-07-20 22:32:00,
2013-07-21 08:37:00,50.8,39.5,29.93,NW,325,0.0,5.0,65,0.00,CLR,,0.00,WeatherDisplay:10.37,2013-07-20 22:37:00,
2013-07-21 08:47:00,51.8,40.0,29.93,NNW,337,0.0,0.0,64,0.00,CLR,,0.00,WeatherDisplay:10.37,2013-07-20 22:47:00,
2013-07-21 08:52:00,52.2,40.4,29.93,NNW,334,0.0,2.0,64,0.00,CLR,,0.00,WeatherDisplay:10.37,2013-07-20 22:52:00,
2013-07-21 08:57:00,52.5,40.3,29.93,NNW,339,0.0,0.0,63,0.00,CLR,,0.00,WeatherDisplay:10.37,2013-07-20 22:57:00,
2013-07-21 09:07:00,53.4,40.7,29.93,NNW,346,0.0,2.0,62,0.00,CLR,,0.00,WeatherDisplay:10.37,2013-07-20 23:07:00,
2013-07-21 09:12:00,53.8,40.6,29.94,NNW,335,0.0,2.0,61,0.00,CLR,,0.00,WeatherDisplay:10.37,2013-07-20 23:12:00,
2013-07-21 09:17:00,54.1,41.0,29.94,NNW,339,0.0,3.0,61,0.00,CLR,,0.00,WeatherDisplay:10.37,2013-07-20 23:17:00,
2013-07-21 09:22:00,54.6,40.9,29.94,NNW,340,0.0,0.0,60,0.00,CLR,,0.00,WeatherDisplay:10.37,2013-07-20 23:22:00,
2013-07-21 09:27:00,55.0,41.3,29.94,NW,319,0.0,4.0,60,0.00,CLR,,0.00,WeatherDisplay:10.37,2013-07-20 23:27:00,
2013-07-21 09:32:00,55.4,41.3,29.94,NW,311,0.0,0.0,59,0.00,CLR,,0.00,WeatherDisplay:10.37,2013-07-20 23:32:00,
2013-07-21 09:37:00,55.9,41.3,29.94,NW,321,0.0,3.0,58,0.00,CLR,,0.00,WeatherDisplay:10.37,2013-07-20 23:37:00,
2013-07-21 09:42:00,56.1,41.1,29.93,NW,325,0.0,2.0,57,0.00,CLR,,0.00,WeatherDisplay:10.37,2013-07-20 23:42:00,
2013-07-21 09:47:00,56.3,40.8,29.93,NNW,335,0.0,3.0,56,0.00,CLR,,0.00,WeatherDisplay:10.37,2013-07-20 23:47:00,
2013-07-21 09:52:00,56.5,40.5,29.93,NW,326,0.0,2.0,55,0.00,CLR,,0.00,WeatherDisplay:10.37,2013-07-20 23:52:00,
2013-07-21 09:57:00,56.8,40.8,29.93,WNW,300,0.0,7.0,55,0.00,CLR,,0.00,WeatherDisplay:10.37,2013-07-20 23:57:00,
2013-07-21 10:02:00,57.0,40.5,29.93,NNW,330,0.0,2.0,54,0.00,CLR,,0.00,WeatherDisplay:10.37,2013-07-21 00:02:00,
2013-07-21 10:07:00,57.2,40.7,29.93,NNW,345,0.0,4.0,54,0.00,CLR,,0.00,WeatherDisplay:10.37,2013-07-21 00:07:00,
2013-07-21 10:12:00,57.6,40.5,29.93,NNW,344,0.0,2.0,53,0.00,CLR,,0.00,WeatherDisplay:10.37,2013-07-21 00:12:00,
2013-07-21 10:17:00,57.9,40.9,29.92,North,357,1.0,6.0,53,0.00,CLR,,0.00,WeatherDisplay:10.37,2013-07-21 00:17:00,
2013-07-21 10:22:00,58.0,40.4,29.92,NW,312,1.0,4.0,52,0.00,CLR,,0.00,WeatherDisplay:10.37,2013-07-21 00:22:00,
2013-07-21 10:27:00,58.3,40.2,29.92,WNW,285,1.0,7.0,51,0.00,CLR,,0.00,WeatherDisplay:10.37,2013-07-21 00:27:00,
2013-07-21 10:32:00,58.6,40.6,29.92,NW,308,0.0,6.0,51,0.00,CLR,,0.00,WeatherDisplay:10.37,2013-07-21 00:32:00,
2013-07-21 10:37:00,58.8,40.2,29.92,NW,325,1.0,6.0,50,0.00,CLR,,0.00,WeatherDisplay:10.37,2013-07-21 00:37:00,
2013-07-21 10:42:00,59.1,40.5,29.91,North,358,2.0,5.0,50,0.00,CLR,,0.00,WeatherDisplay:10.37,2013-07-21 00:42:00,
2013-07-21 10:52:00,59.5,40.3,29.91,NNW,339,2.0,7.0,49,0.00,CLR,,0.00,WeatherDisplay:10.37,2013-07-21 00:52:00,
2013-07-21 10:57:00,59.7,39.4,29.91,WNW,303,2.0,7.0,47,0.00,CLR,,0.00,WeatherDisplay:10.37,2013-07-21 00:57:00,
2013-07-21 11:02:00,59.9,39.6,29.91,NW,307,1.0,7.0,47,0.00,CLR,,0.00,WeatherDisplay:10.37,2013-07-21 01:02:00,
2013-07-21 11:07:00,60.2,39.9,29.91,NW,318,1.0,3.0,47,0.00,CLR,,0.00,WeatherDisplay:10.37,2013-07-21 01:07:00,
2013-07-21 11:17:00,60.6,39.7,29.91,NW,307,3.0,7.0,46,0.00,CLR,,0.00,WeatherDisplay:10.37,2013-07-21 01:17:00,
2013-07-21 11:27:00,61.2,39.7,29.90,NNW,334,1.0,8.0,45,0.00,CLR,,0.00,WeatherDisplay:10.37,2013-07-21 01:27:00,
2013-07-21 11:37:00,61.5,39.4,29.90,NNW,345,3.0,6.0,44,0.00,CLR,,0.00,WeatherDisplay:10.37,2013-07-21 01:37:00,
2013-07-21 11:42:00,61.5,38.8,29.89,WNW,283,2.0,6.0,43,0.00,CLR,,0.00,WeatherDisplay:10.37,2013-07-21 01:42:00,
2013-07-21 11:47:00,61.8,39.7,29.89,WNW,288,2.0,7.0,44,0.00,CLR,,0.00,WeatherDisplay:10.37,2013-07-21 01:47:00,
2013-07-21 11:52:00,62.0,39.2,29.89,North,352,3.0,8.0,43,0.00,CLR,,0.00,WeatherDisplay:10.37,2013-07-21 01:52:00,
2013-07-21 11:57:00,62.2,38.8,29.89,North,1,3.0,8.0,42,0.00,CLR,,0.00,WeatherDisplay:10.37,2013-07-21 01:57:00,
2013-07-21 12:07:00,62.2,38.8,29.88,NNW,341,2.0,6.0,42,0.00,CLR,,0.00,WeatherDisplay:10.37,2013-07-21 02:07:00,
2013-07-21 12:12:00,62.4,38.4,29.88,NNW,333,2.0,7.0,41,0.00,CLR,,0.00,WeatherDisplay:10.37,2013-07-21 02:12:00,
2013-07-21 12:22:00,62.4,38.4,29.87,NNW,347,1.0,9.0,41,0.00,CLR,,0.00,WeatherDisplay:10.37,2013-07-21 02:22:00,
2013-07-21 12:27:00,62.7,38.7,29.88,NW,309,0.0,8.0,41,0.00,CLR,,0.00,WeatherDisplay:10.37,2013-07-21 02:27:00,
2013-07-21 12:37:00,63.1,39.0,29.87,NW,317,2.0,7.0,41,0.00,CLR,,0.00,WeatherDisplay:10.37,2013-07-21 02:37:00,
2013-07-21 12:47:00,63.7,39.5,29.86,NNW,344,2.0,6.0,41,0.00,CLR,,0.00,WeatherDisplay:10.37,2013-07-21 02:47:00,
2013-07-21 12:52:00,64.0,39.8,29.86,NNW,338,1.0,6.0,41,0.00,CLR,,0.00,WeatherDisplay:10.37,2013-07-21 02:52:00,
2013-07-21 13:02:00,63.8,39.0,29.86,NNW,327,1.0,7.0,40,0.00,CLR,,0.00,WeatherDisplay:10.37,2013-07-21 03:02:00,
2013-07-21 13:07:00,63.9,39.1,29.85,NW,319,2.0,10.0,40,0.00,CLR,,0.00,WeatherDisplay:10.37,2013-07-21 03:07:00,
2013-07-21 13:12:00,64.0,38.6,29.86,West,281,2.0,10.0,39,0.00,CLR,,0.00,WeatherDisplay:10.37,2013-07-21 03:12:00,
2013-07-21 13:17:00,64.1,38.7,29.85,West,268,2.0,9.0,39,0.00,CLR,,0.00,WeatherDisplay:10.37,2013-07-21 03:17:00,
2013-07-21 13:22:00,64.2,38.7,29.85,NW,316,1.0,7.0,39,0.00,CLR,,0.00,WeatherDisplay:10.37,2013-07-21 03:22:00,
2013-07-21 13:27:00,64.2,38.7,29.84,NNW,336,1.0,6.0,39,0.00,CLR,,0.00,WeatherDisplay:10.37,2013-07-21 03:27:00,
2013-07-21 13:32:00,64.3,38.8,29.85,NW,315,1.0,7.0,39,0.00,CLR,,0.00,WeatherDisplay:10.37,2013-07-21 03:32:00,
2013-07-21 13:37:00,64.4,38.9,29.84,NW,306,1.0,5.0,39,0.00,CLR,,0.00,WeatherDisplay:10.37,2013-07-21 03:37:00,
2013-07-21 13:42:00,64.6,39.0,29.85,NW,312,1.0,5.0,39,0.00,CLR,,0.00,WeatherDisplay:10.37,2013-07-21 03:42:00,
2013-07-21 13:47:00,64.6,38.4,29.84,West,279,1.0,6.0,38,0.00,CLR,,0.00,WeatherDisplay:10.37,2013-07-21 03:47:00,
2013-07-21 13:57:00,64.6,38.4,29.84,NW,317,1.0,6.0,38,0.00,CLR,,0.00,WeatherDisplay:10.37,2013-07-21 03:57:00,
2013-07-21 14:02:00,64.7,38.5,29.84,NW,321,2.0,10.0,38,0.00,CLR,,0.00,WeatherDisplay:10.37,2013-07-21 04:02:00,
2013-07-21 14:07:00,64.4,38.2,29.83,NW,305,2.0,10.0,38,0.00,CLR,,0.00,WeatherDisplay:10.37,2013-07-21 04:07:00,
2013-07-21 14:12:00,64.2,38.1,29.84,NW,307,1.0,6.0,38,0.00,CLR,,0.00,WeatherDisplay:10.37,2013-07-21 04:12:00,
2013-07-21 14:17:00,64.2,38.1,29.83,North,349,0.0,5.0,38,0.00,CLR,,0.00,WeatherDisplay:10.37,2013-07-21 04:17:00,
2013-07-21 14:22:00,64.4,38.3,29.83,NW,326,1.0,10.0,38,0.00,CLR,,0.00,WeatherDisplay:10.37,2013-07-21 04:22:00,
2013-07-21 14:27:00,64.2,38.1,29.84,NW,322,1.0,7.0,38,0.00,CLR,,0.00,WeatherDisplay:10.37,2013-07-21 04:27:00,
2013-07-21 14:37:00,64.1,38.0,29.83,NNW,327,1.0,5.0,38,0.00,CLR,,0.00,WeatherDisplay:10.37,2013-07-21 04:37:00,
2013-07-21 14:42:00,64.1,37.9,29.83,WNW,288,0.0,5.0,38,0.00,CLR,,0.00,WeatherDisplay:10.37,2013-07-21 04:42:00,
2013-07-21 14:47:00,64.2,38.0,29.83,West,270,1.0,7.0,38,0.00,CLR,,0.00,WeatherDisplay:10.37,2013-07-21 04:47:00,
2013-07-21 14:52:00,64.2,38.1,29.83,West,281,3.0,8.0,38,0.00,CLR,,0.00,WeatherDisplay:10.37,2013-07-21 04:52:00,
2013-07-21 14:57:00,64.0,37.2,29.83,WNW,285,1.0,6.0,37,0.00,CLR,,0.00,WeatherDisplay:10.37,2013-07-21 04:57:00,
2013-07-21 15:02:00,64.0,37.2,29.83,NW,322,2.0,6.0,37,0.00,CLR,,0.00,WeatherDisplay:10.37,2013-07-21 05:02:00,
2013-07-21 15:07:00,63.7,36.9,29.83,NNW,347,2.0,6.0,37,0.00,CLR,,0.00,WeatherDisplay:10.37,2013-07-21 05:07:00,
2013-07-21 15:12:00,63.7,37.6,29.83,NNW,330,3.0,7.0,38,0.00,CLR,,0.00,WeatherDisplay:10.37,2013-07-21 05:12:00,
2013-07-21 15:17:00,63.7,36.9,29.83,NNW,332,1.0,7.0,37,0.00,CLR,,0.00,WeatherDisplay:10.37,2013-07-21 05:17:00,
2013-07-21 15:22:00,63.5,36.7,29.83,WNW,300,5.0,10.0,37,0.00,CLR,,0.00,WeatherDisplay:10.37,2013-07-21 05:22:00,
2013-07-21 15:27:00,63.3,36.6,29.83,NW,305,1.0,9.0,37,0.00,CLR,,0.00,WeatherDisplay:10.37,2013-07-21 05:27:00,
2013-07-21 15:32:00,63.1,36.4,29.83,NW,325,0.0,5.0,37,0.00,CLR,,0.00,WeatherDisplay:10.37,2013-07-21 05:32:00,
2013-07-21 15:37:00,63.0,36.3,29.83,NNW,338,3.0,9.0,37,0.00,CLR,,0.00,WeatherDisplay:10.37,2013-07-21 05:37:00,
2013-07-21 15:42:00,62.8,36.8,29.83,NNW,346,1.0,3.0,38,0.00,CLR,,0.00,WeatherDisplay:10.37,2013-07-21 05:42:00,
2013-07-21 15:47:00,62.5,36.5,29.83,NW,313,1.0,7.0,38,0.00,CLR,,0.00,WeatherDisplay:10.37,2013-07-21 05:47:00,
2013-07-21 15:52:00,62.4,36.4,29.83,NW,307,0.0,5.0,38,0.00,CLR,,0.00,WeatherDisplay:10.37,2013-07-21 05:52:00,
2013-07-21 15:57:00,62.1,36.2,29.83,NNW,335,1.0,5.0,38,0.00,CLR,,0.00,WeatherDisplay:10.37,2013-07-21 05:57:00,
2013-07-21 16:02:00,61.8,35.9,29.83,NNW,344,1.0,5.0,38,0.00,CLR,,0.00,WeatherDisplay:10.37,2013-07-21 06:02:00,
2013-07-21 16:07:00,61.5,36.3,29.83,NNW,328,0.0,6.0,39,0.00,CLR,,0.00,WeatherDisplay:10.37,2013-07-21 06:07:00,
2013-07-21 16:12:00,61.3,35.5,29.83,NW,320,0.0,4.0,38,0.00,CLR,,0.00,WeatherDisplay:10.37,2013-07-21 06:12:00,
2013-07-21 16:17:00,61.0,35.2,29.83,NW,324,0.0,3.0,38,0.00,CLR,,0.00,WeatherDisplay:10.37,2013-07-21 06:17:00,
2013-07-21 16:22:00,60.7,35.0,29.83,NNW,328,3.0,5.0,38,0.00,CLR,,0.00,WeatherDisplay:10.37,2013-07-21 06:22:00,
2013-07-21 16:27:00,60.6,35.5,29.83,NNW,332,0.0,4.0,39,0.00,CLR,,0.00,WeatherDisplay:10.37,2013-07-21 06:27:00,
2013-07-21 16:32:00,60.4,35.3,29.84,NNW,341,0.0,3.0,39,0.00,CLR,,0.00,WeatherDisplay:10.37,2013-07-21 06:32:00,
2013-07-21 16:37:00,60.4,35.3,29.84,NW,319,1.0,3.0,39,0.00,CLR,,0.00,WeatherDisplay:10.37,2013-07-21 06:37:00,
2013-07-21 16:42:00,60.1,35.0,29.84,NW,313,0.0,1.0,39,0.00,CLR,,0.00,WeatherDisplay:10.37,2013-07-21 06:42:00,
2013-07-21 16:47:00,59.9,35.5,29.84,NW,326,0.0,0.0,40,0.00,CLR,,0.00,WeatherDisplay:10.37,2013-07-21 06:47:00,
2013-07-21 16:52:00,59.7,35.3,29.85,NNW,339,0.0,0.0,40,0.00,CLR,,0.00,WeatherDisplay:10.37,2013-07-21 06:52:00,
2013-07-21 16:57:00,59.6,35.2,29.85,NNW,339,0.0,3.0,40,0.00,CLR,,0.00,WeatherDisplay:10.37,2013-07-21 06:57:00,
2013-07-21 17:02:00,59.5,35.2,29.85,NNW,342,0.0,3.0,40,0.00,CLR,,0.00,WeatherDisplay:10.37,2013-07-21 07:02:00,
2013-07-21 17:07:00,59.3,35.6,29.85,North,353,0.0,0.0,41,0.00,CLR,,0.00,WeatherDisplay:10.37,2013-07-21 07:07:00,
2013-07-21 17:12:00,59.1,35.4,29.86,North,350,0.0,0.0,41,0.00,CLR,,0.00,WeatherDisplay:10.37,2013-07-21 07:12:00,
2013-07-21 17:17:00,58.8,35.2,29.86,North,357,0.0,0.0,41,0.00,CLR,,0.00,WeatherDisplay:10.37,2013-07-21 07:17:00,
2013-07-21 17:22:00,58.6,35.6,29.86,North,8,0.0,0.0,42,0.00,CLR,,0.00,WeatherDisplay:10.37,2013-07-21 07:22:00,
2013-07-21 17:27:00,58.3,35.9,29.87,North,2,0.0,0.0,43,0.00,CLR,,0.00,WeatherDisplay:10.37,2013-07-21 07:27:00,
2013-07-21 17:32:00,57.9,35.5,29.87,North,360,0.0,2.0,43,0.00,CLR,,0.00,WeatherDisplay:10.37,2013-07-21 07:32:00,
2013-07-21 17:37:00,57.7,35.4,29.87,NNW,344,0.0,2.0,43,0.00,CLR,,0.00,WeatherDisplay:10.37,2013-07-21 07:37:00,
2013-07-21 17:42:00,57.4,35.6,29.87,NW,306,0.0,0.0,44,0.00,CLR,,0.00,WeatherDisplay:10.37,2013-07-21 07:42:00,
2013-07-21 17:47:00,57.0,35.3,29.88,NW,305,0.0,0.0,44,0.00,CLR,,0.00,WeatherDisplay:10.37,2013-07-21 07:47:00,
2013-07-21 17:52:00,56.8,35.7,29.87,WNW,299,0.0,0.0,45,0.00,CLR,,0.00,WeatherDisplay:10.37,2013-07-21 07:52:00,
2013-07-21 17:57:00,56.8,35.7,29.88,WNW,287,0.0,0.0,45,0.00,CLR,,0.00,WeatherDisplay:10.37,2013-07-21 07:57:00,
2013-07-21 18:02:00,56.5,35.4,29.88,West,280,0.0,0.0,45,0.00,CLR,,0.00,WeatherDisplay:10.37,2013-07-21 08:02:00,
2013-07-21 18:07:00,56.3,35.2,29.88,West,268,0.0,0.0,45,0.00,CLR,,0.00,WeatherDisplay:10.37,2013-07-21 08:07:00,
2013-07-21 18:12:00,56.1,35.1,29.88,West,271,0.0,0.0,45,0.00,CLR,,0.00,WeatherDisplay:10.37,2013-07-21 08:12:00,
2013-07-21 18:17:00,55.9,35.4,29.88,West,272,0.0,0.0,46,0.00,CLR,,0.00,WeatherDisplay:10.37,2013-07-21 08:17:00,
2013-07-21 18:22:00,55.8,34.7,29.88,West,271,0.0,0.0,45,0.00,CLR,,0.00,WeatherDisplay:10.37,2013-07-21 08:22:00,
2013-07-21 18:27:00,55.6,35.1,29.88,West,269,0.0,0.0,46,0.00,CLR,,0.00,WeatherDisplay:10.37,2013-07-21 08:27:00,
2013-07-21 18:32:00,55.5,35.1,29.88,West,261,0.0,0.0,46,0.00,CLR,,0.00,WeatherDisplay:10.37,2013-07-21 08:32:00,
2013-07-21 18:37:00,55.2,34.8,29.89,West,264,0.0,0.0,46,0.00,CLR,,0.00,WeatherDisplay:10.37,2013-07-21 08:37:00,
2013-07-21 18:42:00,55.2,34.8,29.88,West,261,0.0,0.0,46,0.00,CLR,,0.00,WeatherDisplay:10.37,2013-07-21 08:42:00,
2013-07-21 18:47:00,55.1,34.7,29.88,West,262,0.0,0.0,46,0.00,CLR,,0.00,WeatherDisplay:10.37,2013-07-21 08:47:00,
2013-07-21 18:52:00,55.0,34.6,29.88,WNW,285,0.0,0.0,46,0.00,CLR,,0.00,WeatherDisplay:10.37,2013-07-21 08:52:00,
2013-07-21 18:57:00,54.8,34.4,29.88,WNW,298,0.0,0.0,46,0.00,CLR,,0.00,WeatherDisplay:10.37,2013-07-21 08:57:00,
2013-07-21 19:02:00,54.7,34.8,29.88,WNW,298,0.0,0.0,47,0.00,CLR,,0.00,WeatherDisplay:10.37,2013-07-21 09:02:00,
2013-07-21 19:07:00,54.5,34.7,29.89,West,279,0.0,0.0,47,0.00,CLR,,0.00,WeatherDisplay:10.37,2013-07-21 09:07:00,
2013-07-21 19:12:00,54.5,34.7,29.89,West,280,0.0,0.0,47,0.00,CLR,,0.00,WeatherDisplay:10.37,2013-07-21 09:12:00,
2013-07-21 19:17:00,54.5,34.7,29.88,WNW,289,0.0,0.0,47,0.00,CLR,,0.00,WeatherDisplay:10.37,2013-07-21 09:17:00,
2013-07-21 19:22:00,54.5,34.1,29.89,NW,311,0.0,2.0,46,0.00,CLR,,0.00,WeatherDisplay:10.37,2013-07-21 09:22:00,
2013-07-21 19:27:00,54.5,34.1,29.89,NW,319,0.0,0.0,46,0.00,CLR,,0.00,WeatherDisplay:10.37,2013-07-21 09:27:00,
2013-07-21 19:32:00,54.4,34.6,29.90,NW,305,0.0,0.0,47,0.00,CLR,,0.00,WeatherDisplay:10.37,2013-07-21 09:32:00,
2013-07-21 19:37:00,54.3,34.5,29.90,NW,313,0.0,3.0,47,0.00,CLR,,0.00,WeatherDisplay:10.37,2013-07-21 09:37:00,
2013-07-21 19:42:00,54.1,34.3,29.90,WNW,289,0.0,0.0,47,0.00,CLR,,0.00,WeatherDisplay:10.37,2013-07-21 09:42:00,
2013-07-21 19:47:00,54.0,34.2,29.90,West,266,0.0,0.0,47,0.00,CLR,,0.00,WeatherDisplay:10.37,2013-07-21 09:47:00,
2013-07-21 19:52:00,53.8,34.5,29.90,West,268,0.0,0.0,48,0.00,CLR,,0.00,WeatherDisplay:10.37,2013-07-21 09:52:00,
2013-07-21 19:57:00,53.7,34.5,29.91,West,264,0.0,0.0,48,0.00,CLR,,0.00,WeatherDisplay:10.37,2013-07-21 09:57:00,
2013-07-21 20:02:00,53.4,34.2,29.91,West,269,0.0,2.0,48,0.00,CLR,,0.00,WeatherDisplay:10.37,2013-07-21 10:02:00,
2013-07-21 20:07:00,53.2,34.0,29.91,West,277,0.0,0.0,48,0.00,CLR,,0.00,WeatherDisplay:10.37,2013-07-21 10:07:00,
2013-07-21 20:12:00,53.2,34.6,29.91,West,279,0.0,0.0,49,0.00,CLR,,0.00,WeatherDisplay:10.37,2013-07-21 10:12:00,
2013-07-21 20:17:00,52.9,34.2,29.92,West,270,0.0,0.0,49,0.00,CLR,,0.00,WeatherDisplay:10.37,2013-07-21 10:17:00,
2013-07-21 20:22:00,52.9,34.2,29.91,West,266,0.0,0.0,49,0.00,CLR,,0.00,WeatherDisplay:10.37,2013-07-21 10:22:00,
2013-07-21 20:27:00,52.9,34.2,29.92,West,279,0.0,0.0,49,0.00,CLR,,0.00,WeatherDisplay:10.37,2013-07-21 10:27:00,
2013-07-21 20:32:00,52.9,34.2,29.92,WNW,287,0.0,0.0,49,0.00,CLR,,0.00,WeatherDisplay:10.37,2013-07-21 10:32:00,
2013-07-21 20:37:00,52.7,34.1,29.92,West,278,0.0,0.0,49,0.00,CLR,,0.00,WeatherDisplay:10.37,2013-07-21 10:37:00,
2013-07-21 20:42:00,52.6,33.9,29.92,West,273,0.0,2.0,49,0.00,CLR,,0.00,WeatherDisplay:10.37,2013-07-21 10:42:00,
2013-07-21 20:47:00,52.4,34.3,29.92,West,268,0.0,2.0,50,0.00,CLR,,0.00,WeatherDisplay:10.37,2013-07-21 10:47:00,
2013-07-21 20:52:00,52.3,34.2,29.92,West,271,0.0,0.0,50,0.00,CLR,,0.00,WeatherDisplay:10.37,2013-07-21 10:52:00,
2013-07-21 20:57:00,52.3,34.2,29.93,West,269,0.0,0.0,50,0.00,CLR,,0.00,WeatherDisplay:10.37,2013-07-21 10:57:00,
2013-07-21 21:02:00,52.2,34.1,29.93,West,260,0.0,0.0,50,0.00,CLR,,0.00,WeatherDisplay:10.37,2013-07-21 11:02:00,
2013-07-21 21:07:00,52.2,34.1,29.93,West,270,0.0,0.0,50,0.00,CLR,,0.00,WeatherDisplay:10.37,2013-07-21 11:07:00,
2013-07-21 21:12:00,52.0,33.9,29.93,West,273,0.0,0.0,50,0.00,CLR,,0.00,WeatherDisplay:10.37,2013-07-21 11:12:00,
2013-07-21 21:17:00,51.8,33.7,29.93,WNW,283,0.0,0.0,50,0.00,CLR,,0.00,WeatherDisplay:10.37,2013-07-21 11:17:00,
2013-07-21 21:22:00,51.8,33.7,29.93,West,276,0.0,0.0,50,0.00,CLR,,0.00,WeatherDisplay:10.37,2013-07-21 11:22:00,
2013-07-21 21:27:00,51.6,33.6,29.93,West,264,0.0,0.0,50,0.00,CLR,,0.00,WeatherDisplay:10.37,2013-07-21 11:27:00,
2013-07-21 21:32:00,51.6,33.6,29.93,West,274,0.0,0.0,50,0.00,CLR,,0.00,WeatherDisplay:10.37,2013-07-21 11:32:00,
2013-07-21 21:37:00,51.6,33.6,29.93,WNW,286,0.0,0.0,50,0.00,CLR,,0.00,WeatherDisplay:10.37,2013-07-21 11:37:00,
2013-07-21 21:42:00,51.4,33.9,29.93,WNW,286,0.0,0.0,51,0.00,CLR,,0.00,WeatherDisplay:10.37,2013-07-21 11:42:00,
2013-07-21 21:47:00,51.4,33.9,29.94,West,274,0.0,0.0,51,0.00,CLR,,0.00,WeatherDisplay:10.37,2013-07-21 11:47:00,
2013-07-21 21:52:00,51.4,33.9,29.94,West,275,0.0,0.0,51,0.00,CLR,,0.00,WeatherDisplay:10.37,2013-07-21 11:52:00,
2013-07-21 21:57:00,51.4,33.9,29.94,WNW,288,0.0,0.0,51,0.00,CLR,,0.00,WeatherDisplay:10.37,2013-07-21 11:57:00,
2013-07-21 22:02:00,51.4,33.9,29.94,WNW,287,0.0,0.0,51,0.00,CLR,,0.00,WeatherDisplay:10.37,2013-07-21 12:02:00,
2013-07-21 22:07:00,51.3,33.7,29.94,WNW,290,0.0,0.0,51,0.00,CLR,,0.00,WeatherDisplay:10.37,2013-07-21 12:07:00,
2013-07-21 22:12:00,51.3,33.7,29.95,WNW,282,0.0,2.0,51,0.00,CLR,,0.00,WeatherDisplay:10.37,2013-07-21 12:12:00,
2013-07-21 22:17:00,51.1,33.6,29.94,WSW,258,0.0,0.0,51,0.00,CLR,,0.00,WeatherDisplay:10.37,2013-07-21 12:17:00,
2013-07-21 22:22:00,51.1,33.6,29.94,West,276,0.0,0.0,51,0.00,CLR,,0.00,WeatherDisplay:10.37,2013-07-21 12:22:00,
2013-07-21 22:27:00,51.1,34.1,29.95,West,275,0.0,0.0,52,0.00,CLR,,0.00,WeatherDisplay:10.37,2013-07-21 12:27:00,
2013-07-21 22:32:00,51.1,34.1,29.95,WNW,285,0.0,0.0,52,0.00,CLR,,0.00,WeatherDisplay:10.37,2013-07-21 12:32:00,
2013-07-21 22:37:00,50.9,33.9,29.95,WNW,282,0.0,0.0,52,0.00,CLR,,0.00,WeatherDisplay:10.37,2013-07-21 12:37:00,
2013-07-21 22:42:00,50.7,33.7,29.95,West,274,0.0,0.0,52,0.00,CLR,,0.00,WeatherDisplay:10.37,2013-07-21 12:42:00,
2013-07-21 22:47:00,50.7,34.2,29.96,West,274,0.0,0.0,53,0.00,CLR,,0.00,WeatherDisplay:10.37,2013-07-21 12:47:00,
2013-07-21 22:52:00,50.5,34.0,29.96,West,272,0.0,0.0,53,0.00,CLR,,0.00,WeatherDisplay:10.37,2013-07-21 12:52:00,
2013-07-21 22:57:00,50.5,34.0,29.96,WNW,283,0.0,0.0,53,0.00,CLR,,0.00,WeatherDisplay:10.37,2013-07-21 12:57:00,
2013-07-21 23:02:00,50.4,33.9,29.96,West,270,0.0,0.0,53,0.00,CLR,,0.00,WeatherDisplay:10.37,2013-07-21 13:02:00,
2013-07-21 23:07:00,50.2,33.7,29.95,West,259,0.0,0.0,53,0.00,CLR,,0.00,WeatherDisplay:10.37,2013-07-21 13:07:00,
2013-07-21 23:12:00,50.2,33.7,29.96,WNW,283,0.0,0.0,53,0.00,CLR,,0.00,WeatherDisplay:10.37,2013-07-21 13:12:00,
2013-07-21 23:17:00,50.2,33.7,29.96,WNW,287,0.0,0.0,53,0.00,CLR,,0.00,WeatherDisplay:10.37,2013-07-21 13:17:00,
2013-07-21 23:22:00,50.0,34.0,29.97,West,280,0.0,0.0,54,0.00,CLR,,0.00,WeatherDisplay:10.37,2013-07-21 13:22:00,
2013-07-21 23:27:00,50.0,34.0,29.96,West,281,0.0,0.0,54,0.00,CLR,,0.00,WeatherDisplay:10.37,2013-07-21 13:27:00,
2013-07-21 23:32:00,49.8,33.8,29.97,NW,309,0.0,0.0,54,0.00,CLR,,0.00,WeatherDisplay:10.37,2013-07-21 13:32:00,
2013-07-21 23:37:00,49.9,33.9,29.97,NW,316,0.0,0.0,54,0.00,CLR,,0.00,WeatherDisplay:10.37,2013-07-21 13:37:00,
2013-07-21 23:42:00,49.9,33.9,29.97,WNW,284,0.0,0.0,54,0.00,CLR,,0.00,WeatherDisplay:10.37,2013-07-21 13:42:00,
2013-07-21 23:47:00,50.0,34.0,29.96,West,271,0.0,0.0,54,0.00,CLR,,0.00,WeatherDisplay:10.37,2013-07-21 13:47:00,
2013-07-21 23:52:00,50.0,34.0,29.96,WNW,289,0.0,0.0,54,0.00,CLR,,0.00,WeatherDisplay:10.37,2013-07-21 13:52:00,
2013-07-21 23:57:00,50.1,34.0,29.97,NNW,341,0.0,0.0,54,0.00,CLR,,0.00,WeatherDisplay:10.37,2013-07-21 13:57:00,